Regional Weather Roundup
Issued by NWS Jackson, KY

Home | Current Version | Previous Version | Graphics & Text | Print | Product List | Glossary On
Versions: 1 2 3 4 5 6 7 8 9 10 11 12 13 14 15 16 17 18 19 20 21 22 23 24 25 26 27
000
ASUS43 KJKL 212210
RWRJKL

EAST KENTUCKY HOURLY WEATHER ROUNDUP
NATIONAL WEATHER SERVICE JACKSON KY
500 PM EST TUE FEB 21 2017

NOTE: "FAIR" INDICATES FEW OR NO CLOUDS BELOW 12,000 FEET WITH
NO SIGNIFICANT WEATHER AND/OR OBSTRUCTIONS TO VISIBILITY.

* THESE REPORTS ARE NOT UNDER NWS QUALITY CONTROL AND MAY NOT
  REPORT WEATHER SUCH AS PRECIPITATION AND FOG.

KYZ079-080-083-085-087-088-110-112-115-119-120-212300
...EASTERN KENTUCKY...

CITY           SKY/WX    TMP DP  RH WIND       PRES   REMARKS
JACKSON        CLOUDY    70  43  37 CALM      29.99S
LONDON         CLOUDY    68  43  40 S5        29.98S
SOMERSET*      LGT RAIN  66  50  55 CALM      29.98S
MONTICELLO*    LGT RAIN  66  52  60 VRB7      29.99S
WILLIAMSBURG*  CLOUDY    66  46  48 SE7       29.98F
MIDDLESBORO*   CLOUDY    69  45  41 S3        30.00S
HARLAN APT*    CLOUDY    68  37  32 CALM      30.01R
PIKE CO APT*     N/A     69  38  31 CALM      29.99S
BIG SANDY APT* CLOUDY    70  40  33 CALM      29.99S
MOREHEAD APT*  MOCLDY    70  45  40 CALM      29.98F
ASHLAND*       MOSUNNY   72  46  40 CALM      29.95S
$$

KYZ035-036-041-042-044-050-067-078-099-212300
...CENTRAL KENTUCKY...

CITY           SKY/WX    TMP DP  RH WIND       PRES   REMARKS
MT STERLING*   CLOUDY    68  46  45 CALM      29.98S
FLEMING/MASON* PTSUNNY   68  50  53 CALM      29.98S
DANVILLE*      CLOUDY    68  48  49 S7        29.98R
LEXINGTON      CLOUDY    68  46  45 S6        29.96F
FRANKFORT      CLOUDY    69  48  47 SE5       29.94S
LOUISVILLE     CLOUDY    70  48  45 S6        29.93S
LEBANON*       CLOUDY    68  50  52 S8        29.96R
GLASGOW*       CLOUDY    66  51  58 SE9       29.95S
BOWLING GREEN  CLOUDY    69  52  54 SE9       29.93S
$$

KYZ091>093-OHZ055-061-077-WVZ005-015-034-035-042-212300
...SOUTHERN OHIO/WEST VIRGINIA...

CITY           SKY/WX    TMP DP  RH WIND       PRES   REMARKS
COVINGTON      LGT RAIN  59  56  89 SW5       29.97R FOG
COLUMBUS       CLOUDY    67  48  50 SW9       29.98R
DAYTON         CLOUDY    62  47  57 S9        29.97S
WILMINGTON     LGT RAIN  58  53  84 NW8       29.97F
HUNTINGTON     CLOUDY    72  41  32 CALM      29.96F
CHARLESTON     PTSUNNY   71  36  27 CALM      29.98F
PINEVILLE*     SUNNY     69  33  25 MISG      30.05S
BECKLEY        MOSUNNY   63  39  41 SE7       30.03F
BLUEFIELD      SUNNY     60  39  45 VRB5      30.06F
LOGAN CO APT*    N/A     68  34  28 W3        30.00F
$$

VAZ002-007-008-TNZ017-027-036-066-071-212300
...SOUTHWEST VIRGINIA/EAST TENNESSEE...

CITY           SKY/WX    TMP DP  RH WIND       PRES   REMARKS
WISE*          CLOUDY    64  36  34 CALM      30.05S
JONESVILLE*      N/A     68  41  37 S6        30.03R
ABINGDON*      SUNNY     66  42  42 S8        30.05R
BRISTOL        PTSUNNY   66  43  43 S6        30.04R
MORRISTOWN*    PTCLDY    68  45  42 E8        30.00R
SEVIERVILLE*   PTCLDY    70  43  37 S7        29.99R
KNOXVILLE      CLOUDY    68  44  42 S9        29.98S
LAFOLLETTE*    CLOUDY    68  46  45 CALM      30.02S
OAK RIDGE      CLOUDY    68  47  46 SW3       30.00R
CROSSVILLE     LGT RAIN  58  49  72 S5        30.01R
NASHVILLE      CLOUDY    66  53  63 S10       29.94R
$$

...KEY TO REMARKS...
VSB - VISIBILITY IN MILES
WCI - WIND CHILL INDEX
HX  - HEAT INDEX

$$




USA.gov is the U.S. government's official web portal to all federal, state and local government web resources and services.